SCOUT B DEB, 29168

Orbit data source: Space-Track

SCOUT B DEB, 29168 is space debris in LEO originally from a launch on Tue, 10 Aug 1965 UTC launched from the Wallops Island (WLPIS). Debris objects in space refer to the collection of defunct objects orbiting the Earth. Examples of debris include non-operational satellites, rocket bodies, and fragments generated from explosions, collisions, or faulty payload assembly.

Loading next visibility...
Identifier
29168, 1965-063S
Orbit
LEO
Country
Flag of USUS
Related business
Manufacturer
Unknown
Mission
Spacecraft
Bus & Motor
Unknown
Mass
Unknown
Launch date (UTC)
1965-08-10 (60 years ago)
Launch vehicle
Unknown
Launch site
Wallops Island (WLPIS)
Object type
Payload
Rocket body
Debris
Shape & HBR
Unknown shape, 0.1 m
Radar Cross Section
Small (<0.1 m²)

Expand to show TLE details & history
Last TLE update: 13 hours ago

TLE from 13 hours ago
0 SCOUT B DEB
1 29168U 65063S   25298.40876595  .00009413  00000-0  44971-1 0  9999
2 29168  69.3316 285.8009 0384905 318.1231 198.0376 12.53709060600773
Epoch: 2025-10-25T09:48Z
TLE epoch observation values (Epoch: 2025-10-25T09:48:37.378Z)
Latitude
23.4531°
Longitude
-84.76914°
Altitude
1,738.638 km
Speed
6.881 km/s
True Right ascension
06h 25m 42s
True Declination
23° 20' 35"
Sunlit
Object was in daylight at epoch
Visualization orbit readout
Latitude
Unknown
Longitude
Unknown
Altitude
Unknown
Speed
Unknown
Apparent Right ascension
Unknown
Apparent Declination
Unknown
Sunlit
N/A
Visualization observer readout
Local Sidereal Time
18:26:16
Azimuth
Unknown
Elevation
Unknown
Doppler factor
Unknown
Orbital elements
Apogee altitude
1,748.462 km
Perigee altitude
1,146.055 km
Semi-major axis
7,825.395 km
Eccentricity
0.03849
Inclination
69.3316°
RAAN
285.8009°
Arg. of periapsis
318.1231°
True anomaly
196.73183°
Mean anomaly
198.0376°
Eccentric anomaly
197.37889°
Mean motion
3.13533 °/min
Orbital period
114.82 mins
BSTAR
0.044971
Loading maneuver chart data...
Computing Atmospheric mass density...
Loading historical data...
Loading historical data...
Loading historical data...
Loading historical data...
Loading historical data...
Loading historical data...
Loading historical data...

Documentation

Showing up to 5 results
|